Volver al catálogo

CZ-6A DEB

ActivoSSO
NORAD 54332·DEBRIS·🇨🇳 China

Lanzado Nov 11, 2022 desde Taiyuan Satellite Launch Center

Loading…

Próximos Pases (próximas 24 horas)

TLE

ActualizadoSource: Space-Track

Época: Sep 14, 2026, 11:51 UTC

1 54332U 22151CB  26257.49400925  .00001255  00000-0  54862-3 0  9994
2 54332  98.7665 276.4578 0040031  76.1064 284.4563 14.25185341198634

Sigue CZ-6A DEB en tiempo real con AllMySat

Download on the App Store